When you browse on this site, cookies collect data to enhance your experience and personalize the content and advertising you see.
Visit our Privacy Policy to learn more. By continuing to use the site, you agree to this use of cookies and data.
  • In Lithuania
  • List of Countries
  • For 7 days
  • Water Temperature
  • Satellite Maps
  • Weather Map
  • Weather Widgets
  • user-avatar
    Login

    Hourly Weather Kipungo

    Today, 17 July, Wednesday

    Time Temperature Precipitation Wind Pressure Humidity
    00:00 +12°C° 0 mm 1 mps 654 mmHg 27%
    01:00 +10°C° 0 mm 0 mps 654 mmHg 31%
    02:00 +9°C° 0 mm 0 mps 654 mmHg 33%
    03:00 +9°C° 0 mm 0 mps 653 mmHg 35%
    04:00 +8°C° 0 mm 0 mps 653 mmHg 36%
    05:00 +8°C° 0 mm 0 mps 653 mmHg 37%
    06:00 +8°C° 0 mm 0 mps 654 mmHg 38%
    07:00 +8°C° 0 mm 0 mps 654 mmHg 38%
    08:00 +14°C° 0 mm 1 mps 655 mmHg 31%
    09:00 +19°C° 0 mm 2 mps 657 mmHg 25%
    10:00 +24°C° 0 mm 2 mps 658 mmHg 18%
    11:00 +27°C° 0 mm 2 mps 657 mmHg 16%
    12:00 +29°C° 0 mm 2 mps 657 mmHg 14%
    13:00 +31°C° 0 mm 2 mps 657 mmHg 11%
    14:00 +31°C° 0 mm 2 mps 656 mmHg 11%
    15:00 +31°C° 0 mm 1 mps 656 mmHg 10%
    16:00 +29°C° 0 mm 0 mps 656 mmHg 10%
    17:00 +28°C° 0 mm 1 mps 655 mmHg 12%
    18:00 +24°C° 0 mm 1 mps 655 mmHg 15%
    19:00 +20°C° 0 mm 1 mps 654 mmHg 18%
    20:00 +19°C° 0 mm 1 mps 654 mmHg 20%
    21:00 +18°C° 0 mm 1 mps 655 mmHg 22%
    22:00 +16°C° 0 mm 1 mps 655 mmHg 24%
    23:00 +15°C° 0 mm 1 mps 654 mmHg 26%

    Tomorrow, 18 July, Thursday

    Time Temperature Precipitation Wind Pressure Humidity
    00:00 +13°C° 0 mm 1 mps 654 mmHg 29%
    01:00 +12°C° 0 mm 1 mps 654 mmHg 31%
    02:00 +12°C° 0 mm 1 mps 653 mmHg 33%
    03:00 +11°C° 0 mm 1 mps 653 mmHg 35%
    04:00 +10°C° 0 mm 1 mps 653 mmHg 38%
    05:00 +10°C° 0 mm 1 mps 653 mmHg 38%
    06:00 +10°C° 0 mm 1 mps 654 mmHg 39%
    07:00 +10°C° 0 mm 1 mps 654 mmHg 40%
    08:00 +15°C° 0 mm 2 mps 655 mmHg 33%
    09:00 +19°C° 0 mm 3 mps 656 mmHg 26%
    10:00 +25°C° 0 mm 3 mps 657 mmHg 19%
    11:00 +27°C° 0 mm 3 mps 657 mmHg 17%
    12:00 +29°C° 0 mm 3 mps 657 mmHg 15%
    13:00 +31°C° 0 mm 3 mps 656 mmHg 12%
    14:00 +32°C° 0 mm 2 mps 656 mmHg 12%
    15:00 +32°C° 0 mm 2 mps 656 mmHg 11%
    16:00 +32°C° 0 mm 1 mps 655 mmHg 10%
    17:00 +28°C° 0 mm 1 mps 655 mmHg 14%
    18:00 +24°C° 0 mm 1 mps 654 mmHg 17%
    19:00 +20°C° 0 mm 1 mps 654 mmHg 21%
    20:00 +19°C° 0 mm 1 mps 654 mmHg 22%
    21:00 +17°C° 0 mm 2 mps 654 mmHg 23%
    22:00 +16°C° 0 mm 2 mps 654 mmHg 25%
    23:00 +15°C° 0 mm 1 mps 654 mmHg 27%

    Day after tomorrow, 19 July, Friday

    Time Temperature Precipitation Wind Pressure Humidity
    00:00 +14°C° 0 mm 1 mps 653 mmHg 30%
    01:00 +13°C° 0 mm 1 mps 653 mmHg 32%
    02:00 +12°C° 0 mm 1 mps 653 mmHg 34%
    03:00 +11°C° 0 mm 1 mps 652 mmHg 36%
    04:00 +10°C° 0 mm 1 mps 652 mmHg 38%
    05:00 +10°C° 0 mm 1 mps 652 mmHg 38%
    06:00 +11°C° 0 mm 1 mps 653 mmHg 38%
    07:00 +10°C° 0 mm 0 mps 653 mmHg 39%
    08:00 +15°C° 0 mm 1 mps 654 mmHg 33%
    09:00 +20°C° 0 mm 2 mps 655 mmHg 27%
    10:00 +25°C° 0 mm 3 mps 657 mmHg 21%
    11:00 +27°C° 0 mm 3 mps 656 mmHg 19%
    12:00 +29°C° 0 mm 3 mps 656 mmHg 16%
    13:00 +33°C° 0 mm 3 mps 656 mmHg 13%
    14:00 +33°C° 0 mm 3 mps 655 mmHg 13%
    15:00 +33°C° 0 mm 3 mps 655 mmHg 12%
    16:00 +33°C° 0 mm 3 mps 654 mmHg 11%
    17:00 +28°C° 0 mm 2 mps 654 mmHg 14%
    18:00 +25°C° 0 mm 2 mps 654 mmHg 17%
    19:00 +21°C° 0 mm 1 mps 653 mmHg 21%
    20:00 +20°C° 0 mm 1 mps 653 mmHg 22%
    21:00 +19°C° 0 mm 1 mps 654 mmHg 24%
    22:00 +16°C° 0 mm 1 mps 654 mmHg 26%
    23:00 +15°C° 0 mm 1 mps 653 mmHg 29%

    20 July, Saturday

    Time Temperature Precipitation Wind Pressure Humidity
    00:00 +13°C° 0 mm 1 mps 653 mmHg 32%
    01:00 +11°C° 0 mm 0 mps 652 mmHg 35%
    02:00 +10°C° 0 mm 0 mps 652 mmHg 37%
    03:00 +10°C° 0 mm 0 mps 652 mmHg 39%
    04:00 +9°C° 0 mm 0 mps 651 mmHg 41%
    05:00 +9°C° 0 mm 0 mps 652 mmHg 41%
    06:00 +9°C° 0 mm 0 mps 653 mmHg 42%
    07:00 +11°C° 0 mm 1 mps 653 mmHg 42%
    08:00 +15°C° 0 mm 1 mps 654 mmHg 34%
    09:00 +20°C° 0 mm 2 mps 655 mmHg 26%
    10:00 +26°C° 0 mm 3 mps 657 mmHg 18%
    11:00 +28°C° 0 mm 3 mps 656 mmHg 15%
    12:00 +30°C° 0 mm 3 mps 656 mmHg 12%
    13:00 +33°C° 0 mm 3 mps 656 mmHg 10%
    14:00 +32°C° 0 mm 2 mps 655 mmHg 9%
    15:00 +32°C° 0 mm 2 mps 655 mmHg 9%
    16:00 +32°C° 0 mm 2 mps 654 mmHg 9%
    17:00 +28°C° 0 mm 2 mps 654 mmHg 12%
    18:00 +25°C° 0 mm 2 mps 654 mmHg 15%
    19:00 +21°C° 0 mm 1 mps 653 mmHg 18%
    20:00 +20°C° 0 mm 1 mps 653 mmHg 20%
    21:00 +18°C° 0 mm 1 mps 654 mmHg 22%
    22:00 +16°C° 0 mm 1 mps 654 mmHg 25%
    23:00 +15°C° 0 mm 1 mps 653 mmHg 27%

    21 July, Sunday

    Time Temperature Precipitation Wind Pressure Humidity
    00:00 +13°C° 0 mm 1 mps 653 mmHg 30%
    01:00 +12°C° 0 mm 1 mps 653 mmHg 33%
    02:00 +12°C° 0 mm 1 mps 653 mmHg 35%
    03:00 +10°C° 0 mm 0 mps 652 mmHg 36%
    04:00 +10°C° 0 mm 0 mps 652 mmHg 38%
    05:00 +10°C° 0 mm 0 mps 653 mmHg 38%
    06:00 +11°C° 0 mm 1 mps 653 mmHg 39%
    07:00 +11°C° 0 mm 1 mps 654 mmHg 40%
    08:00 +16°C° 0 mm 1 mps 655 mmHg 32%
    09:00 +21°C° 0 mm 2 mps 656 mmHg 24%
    10:00 +26°C° 0 mm 2 mps 657 mmHg 16%
    11:00 +28°C° 0 mm 2 mps 657 mmHg 14%
    12:00 +30°C° 0 mm 2 mps 657 mmHg 12%
    13:00 +32°C° 0 mm 2 mps 656 mmHg 10%
    14:00 +32°C° 0 mm 2 mps 656 mmHg 10%
    15:00 +32°C° 0 mm 2 mps 655 mmHg 9%
    16:00 +32°C° 0 mm 1 mps 655 mmHg 9%
    17:00 +29°C° 0 mm 1 mps 655 mmHg 12%
    18:00 +25°C° 0 mm 1 mps 654 mmHg 15%
    19:00 +22°C° 0 mm 1 mps 654 mmHg 17%
    20:00 +20°C° 0 mm 1 mps 654 mmHg 28%
    21:00 +17°C° 0 mm 2 mps 654 mmHg 40%
    22:00 +15°C° 0 mm 2 mps 654 mmHg 51%
    23:00 +14°C° 0 mm 2 mps 654 mmHg 61%

    22 July, Monday

    Time Temperature Precipitation Wind Pressure Humidity
    00:00 +13°C° 0 mm 2 mps 654 mmHg 71%
    01:00 +12°C° 0 mm 1 mps 653 mmHg 82%
    02:00 +12°C° 0 mm 1 mps 653 mmHg 83%
    03:00 +11°C° 0 mm 1 mps 653 mmHg 84%
    04:00 +10°C° 0 mm 0 mps 653 mmHg 84%
    05:00 +10°C° 0 mm 0 mps 653 mmHg 84%
    06:00 +10°C° 0 mm 0 mps 654 mmHg 83%
    07:00 +10°C° 0 mm 0 mps 654 mmHg 82%
    08:00 +15°C° 0 mm 0 mps 655 mmHg 63%
    09:00 +22°C° 0 mm 1 mps 656 mmHg 44%
    10:00 +27°C° 0 mm 1 mps 657 mmHg 25%
    11:00 +28°C° 0 mm 2 mps 657 mmHg 21%
    12:00 +30°C° 0 mm 2 mps 656 mmHg 17%
    13:00 +33°C° 0 mm 3 mps 656 mmHg 12%
    14:00 +32°C° 0 mm 2 mps 656 mmHg 12%
    15:00 +32°C° 0 mm 2 mps 655 mmHg 12%
    16:00 +32°C° 0 mm 2 mps 655 mmHg 11%
    17:00 +29°C° 0 mm 2 mps 654 mmHg 14%
    18:00 +25°C° 0 mm 1 mps 654 mmHg 17%
    19:00 +22°C° 0 mm 1 mps 654 mmHg 20%
    20:00 +20°C° 0 mm 1 mps 654 mmHg 30%
    21:00 +17°C° 0 mm 2 mps 654 mmHg 40%
    22:00 +16°C° 0 mm 2 mps 654 mmHg 49%
    23:00 +15°C° 0 mm 2 mps 653 mmHg 54%
    Show more